Wind_Speed
27 27 27 26 26 26 25 25 24 23 23 22 21 20 20 19 18 17 17 16 15 15 15 15 15 15 14 13 13 14 15 14 14 14 14 14 14 13 14 14 15 16 17 18 18 18 19 18 18 16 14 11 6 6 9 16 16 15 17 20 21 20 21 22 23 24 24 25 25 25 23 22 21 19 18 16 15 15 16 17 18 18 18 19 19 19 19 20
29 29 29 29 28 28 28 27 27 26 25 25 24 23 23 22 21 20 19 19 18 17 16 16 16 16 15 15 14 14 15 15 14 13 13 13 12 12 12 12 13 13 14 15 16 16 16 16 16 15 14 12 8 5 6 14 17 18 19 20 19 21 22 21 22 23 22 23 23 22 21 20 19 17 16 15 15 15 16 16 16 16 17 18 18 18 17 16
32 32 32 31 31 31 30 30 29 29 28 27 27 26 25 25 24 23 22 22 20 19 18 17 17 16 16 16 15 16 16 15 15 14 13 12 12 11 11 10 10 11 12 12 13 14 14 15 14 14 13 12 10 7 0 8 15 20 20 19 20 24 25 23 21 21 21 21 20 20 18 17 16 15 15 15 14 14 13 14 13 14 14 15 15 13 12 10
34 34 33 33 33 33 32 32 31 31 31 30 29 28 28 27 27 26 26 25 24 22 21 20 19 18 17 17 16 16 17 17 16 15 14 13 13 11 11 10 9 9 10 10 11 11 12 13 13 13 12 11 11 11 7 1 9 16 18 18 22 26 26 23 20 19 19 18 18 17 16 15 13 13 14 13 12 11 10 11 10 10 10 10 9 8 6 5
35 34 34 34 33 33 33 32 32 32 32 31 30 29 29 28 28 28 28 27 26 25 24 22 21 21 19 18 17 17 18 20 18 17 17 15 13 12 11 10 9 8 8 9 9 9 10 11 12 12 12 12 11 12 12 7 2 10 17 20 24 26 24 20 17 16 16 16 15 14 13 12 12 12 12 11 9 8 8 8 7 7 6 6 5 5 4 4
35 34 34 34 33 33 33 32 32 32 31 31 30 29 28 28 28 28 28 28 28 27 26 25 23 22 22 20 19 18 18 22 21 19 19 17 15 15 13 11 11 9 8 8 8 8 8 9 10 11 12 12 12 13 14 12 7 2 12 19 22 24 21 18 16 14 13 13 12 12 12 11 11 11 10 10 10 8 8 8 7 6 5 4 4 4 5 5
37 37 36 36 36 35 35 34 34 34 33 32 31 30 29 28 28 28 28 27 27 27 27 27 25 24 23 22 20 19 19 23 24 21 21 20 18 17 16 14 13 11 10 9 9 8 7 8 9 9 11 12 13 13 14 15 13 7 2 11 16 20 19 17 14 12 11 11 11 12 12 11 10 10 11 13 12 10 9 9 7 5 4 3 3 5 7 8
40 40 40 40 39 39 38 38 38 37 37 36 35 34 33 32 31 30 29 29 28 28 27 27 27 25 24 23 22 22 22 25 25 23 23 22 21 20 19 17 15 13 12 11 10 9 8 7 8 8 9 10 12 13 13 15 16 13 7 1 7 14 17 15 12 10 10 10 12 12 11 10 10 11 13 14 13 12 11 10 7 4 4 4 5 6 7 9
43 43 43 43 43 43 42 42 41 41 41 40 39 38 37 36 35 34 33 32 31 30 29 28 27 26 25 24 24 24 25 27 26 25 26 25 23 23 22 20 18 17 15 13 12 11 10 8 7 7 7 8 10 13 14 14 16 15 12 7 2 7 12 12 11 10 10 11 11 11 11 11 11 12 13 14 15 14 12 10 6 5 5 6 6 6 7 8
46 46 46 46 46 46 46 46 45 45 44 43 43 42 41 40 39 38 37 35 34 33 33 32 30 28 27 25 24 25 27 28 27 26 27 27 26 24 24 23 22 20 18 16 14 13 13 11 8 6 6 6 8 10 13 14 14 15 15 12 7 3 7 9 10 11 11 11 11 11 12 13 13 13 13 14 15 14 13 9 7 6 7 7 7 6 6 6
46 46 47 47 47 47 47 47 47 48 47 47 46 45 45 44 42 41 41 39 38 37 36 35 34 32 30 29 27 25 27 28 27 28 28 29 28 26 25 25 24 23 21 19 18 16 14 14 11 7 5 5 5 7 10 13 13 14 15 14 10 4 3 6 9 11 12 11 12 12 12 13 13 13 13 14 15 14 12 9 8 8 7 7 6 5 5 5
48 48 48 49 49 49 49 49 49 49 49 49 48 48 48 47 46 45 44 43 42 41 40 38 37 36 33 33 31 28 28 28 28 28 30 31 31 29 27 26 26 26 24 23 21 19 17 16 14 10 7 4 4 5 7 10 12 13 14 13 12 8 1 3 6 9 10 10 11 11 12 12 12 12 12 13 13 13 11 9 8 6 5 4 3 4 5 6
50 50 51 51 52 52 51 51 51 52 52 51 51 51 50 50 49 48 47 46 46 45 44 42 41 39 37 36 36 33 30 30 29 29 31 32 33 32 30 28 27 28 27 26 24 22 20 18 17 14 10 6 4 3 4 6 9 11 12 12 11 9 6 2 3 6 7 8 10 10 10 11 11 11 11 11 12 12 11 9 6 3 2 2 3 6 9 11
51 52 52 53 54 54 54 54 54 54 55 54 54 54 54 53 52 51 50 49 49 48 48 46 44 43 41 40 41 38 35 34 32 30 31 32 34 34 33 31 30 30 29 28 27 25 22 20 19 17 14 10 6 4 3 4 5 8 9 10 10 9 8 5 2 2 3 5 7 7 8 10 11 11 12 11 11 12 11 8 6 5 5 6 8 10 13 14
51 51 52 53 53 54 54 55 55 56 57 57 57 57 57 57 56 55 54 53 52 51 51 49 48 47 45 44 44 43 40 38 36 34 33 33 35 36 35 33 32 32 31 31 30 28 25 24 22 20 17 13 9 6 4 3 3 4 6 7 9 9 8 8 6 3 1 1 3 5 7 9 11 13 14 13 13 12 11 9 9 9 9 9 11 13 15 17
49 49 50 50 52 52 53 53 54 55 56 57 57 58 59 59 59 59 58 57 55 54 54 52 51 50 48 48 48 47 45 43 40 38 36 35 35 37 36 35 34 34 34 33 33 31 29 27 24 23 21 17 13 10 6 4 3 2 2 4 6 8 8 9 7 6 4 1 1 5 7 7 10 12 12 12 12 12 11 11 12 14 14 14 15 16 17 18
45 45 46 47 48 49 50 50 51 52 53 55 56 57 58 59 59 60 60 60 59 58 57 56 55 53 51 51 51 51 50 47 44 42 40 39 38 38 38 37 35 35 35 36 36 34 33 31 28 26 25 21 18 15 10 7 5 4 2 1 3 3 7 9 7 7 5 2 3 6 8 9 8 9 11 12 12 13 13 14 16 18 18 18 17 16 17 17
42 42 42 43 45 46 47 47 48 49 50 51 52 53 54 56 57 58 60 60 60 60 59 59 58 56 54 53 53 54 54 51 48 46 45 43 41 41 40 39 37 36 37 38 38 37 36 35 32 29 28 26 23 19 13 11 9 7 6 4 2 0 4 8 6 6 6 5 6 8 11 11 10 9 10 12 13 15 17 19 19 20 20 18 17 16 16 17
40 40 40 40 41 43 44 44 45 46 47 48 49 49 50 52 53 55 57 58 58 59 59 60 61 59 58 56 55 56 56 55 52 50 49 47 46 44 43 43 41 38 37 38 39 39 39 38 35 33 33 30 26 22 18 16 13 11 10 7 5 3 3 6 8 7 6 6 7 9 10 10 10 11 13 13 15 17 20 21 20 19 19 18 18 17 16 16
38 38 38 38 39 40 41 41 42 43 44 44 45 46 47 49 50 51 53 54 55 56 56 58 60 60 59 58 58 58 58 57 56 54 53 51 50 48 47 46 44 42 39 39 40 41 42 40 37 38 37 33 29 26 23 21 18 15 13 11 8 7 7 7 8 9 7 6 6 8 11 11 11 13 14 14 14 16 18 20 20 19 18 18 18 18 17 16
39 39 39 38 38 39 40 39 39 40 40 40 41 41 43 44 46 47 50 51 52 53 54 54 56 58 57 58 60 60 60 59 58 57 56 55 53 52 51 49 48 46 43 42 42 42 43 40 40 43 42 37 34 30 28 26 22 19 16 15 13 10 10 10 10 11 10 9 7 8 10 11 13 14 13 14 14 14 15 17 18 19 19 19 18 17 16 15
42 41 40 40 40 40 41 41 41 41 39 39 38 38 38 38 39 41 44 47 48 49 51 52 53 54 55 56 58 59 60 61 60 60 59 58 57 55 54 52 51 50 48 45 43 41 41 40 43 47 44 40 37 33 31 30 27 23 20 18 17 15 13 12 12 12 12 12 11 9 9 11 14 15 14 14 14 14 14 16 18 20 20 19 16 14 13 12
43 43 42 41 40 41 42 43 43 43 41 40 39 38 37 36 36 36 37 40 43 44 46 49 50 51 52 53 56 57 58 59 60 61 62 61 60 58 57 56 55 54 51 47 45 43 41 42 47 51 47 41 39 36 34 33 32 28 24 23 22 20 17 16 14 14 14 14 14 13 11 11 14 15 16 15 14 14 16 18 20 21 20 17 15 13 11 11
44 45 44 43 42 41 42 43 44 44 43 42 42 41 41 41 40 38 36 36 38 37 38 42 45 48 49 50 52 54 56 58 58 60 63 63 62 61 60 59 58 56 55 52 50 47 45 46 51 54 49 42 40 39 37 35 35 33 29 27 26 24 21 19 16 15 16 16 16 14 13 13 14 16 18 19 18 18 19 21 21 21 19 17 14 13 11 10
47 47 47 46 44 42 42 43 43 45 45 44 44 44 45 45 45 45 42 40 38 36 33 34 38 41 45 47 49 51 54 55 56 58 61 63 63 63 64 62 60 59 59 57 54 51 49 50 52 54 51 45 42 41 39 38 38 37 34 31 30 28 25 22 19 18 18 18 17 15 15 16 17 18 19 21 21 21 22 23 22 21 20 18 16 13 12 10
50 51 51 50 48 46 44 43 44 45 45 45 46 46 46 46 47 47 47 44 43 42 38 34 34 36 38 41 45 49 51 51 54 56 58 61 61 63 65 64 63 62 62 61 58 54 53 54 54 53 52 50 45 43 42 40 40 40 38 35 33 32 29 26 24 23 22 21 20 18 18 18 19 20 21 21 22 23 24 24 23 23 21 20 18 15 13 12
54 54 55 54 53 51 48 46 47 46 46 47 48 47 47 46 47 47 47 46 44 46 46 41 38 36 35 35 39 44 46 49 52 53 56 59 60 61 63 66 67 65 64 63 60 57 58 58 56 53 54 55 49 45 44 43 42 43 42 40 38 36 33 30 29 27 25 25 22 21 21 20 20 21 22 22 22 23 24 24 24 23 21 20 19 18 16 14
58 58 59 59 57 57 54 52 50 50 50 51 50 50 49 48 48 48 48 46 44 44 47 48 45 41 38 35 36 37 39 44 49 50 54 57 58 59 61 64 68 68 67 64 63 63 63 61 58 57 58 58 53 49 48 46 44 45 47 46 43 39 36 34 33 31 30 28 24 21 22 22 21 22 23 23 23 23 23 24 24 22 21 21 20 19 18 17
61 61 62 63 62 62 61 59 56 55 55 55 54 54 53 53 52 51 49 47 44 43 46 50 49 47 45 42 38 35 34 38 42 46 51 54 55 58 59 61 65 69 69 67 66 67 66 64 62 62 61 58 57 55 51 48 47 48 51 50 45 41 39 37 37 36 34 29 24 22 23 23 23 24 24 24 26 26 25 25 25 23 22 22 20 18 18 18
62 62 63 65 66 66 66 65 63 61 60 59 59 58 57 56 55 55 52 48 47 47 48 51 51 50 51 49 44 38 34 34 35 38 45 50 53 57 58 59 62 66 70 70 70 69 68 68 65 64 63 59 60 61 55 51 51 52 53 51 48 45 43 41 40 40 36 30 26 26 25 26 27 26 25 26 28 28 27 26 26 25 24 24 22 19 18 20
65 65 65 67 68 68 69 68 67 66 65 64 64 63 61 59 58 57 55 51 51 51 50 53 54 51 52 52 49 44 40 37 33 34 38 42 49 54 57 58 59 63 67 69 73 73 71 70 68 66 67 65 64 64 59 54 55 56 53 51 50 50 47 43 42 41 36 31 30 30 29 30 30 29 28 29 29 28 27 26 26 26 26 26 24 21 20 23
68 68 68 69 70 71 71 71 71 70 69 68 68 67 65 63 60 58 56 54 55 55 54 55 56 55 55 54 51 49 48 44 39 37 36 36 40 47 53 58 59 61 64 67 73 76 73 72 72 71 71 70 69 68 63 59 59 59 56 52 51 53 50 44 42 40 36 33 33 34 35 34 32 32 32 31 30 29 28 27 27 28 28 28 27 25 24 25
70 70 71 71 72 74 73 73 74 72 71 71 71 70 69 65 60 59 59 58 59 59 58 58 58 58 58 57 54 52 51 49 47 43 40 37 36 38 44 53 58 60 62 66 70 75 76 75 74 74 74 73 72 71 67 62 61 62 60 54 52 54 53 46 43 40 37 38 39 40 41 37 33 36 36 33 33 32 29 28 29 29 29 29 29 27 25 25
73 72 73 73 74 75 76 76 76 76 74 74 73 73 72 67 62 62 62 62 63 63 62 62 61 60 60 59 58 56 53 52 51 49 47 43 38 35 36 44 53 59 63 64 66 72 76 76 76 77 77 76 75 74 70 66 66 66 64 61 58 58 55 49 46 44 43 45 44 45 44 38 36 41 41 38 37 34 31 30 30 30 30 30 28 27 26 27
76 75 75 76 76 77 78 79 79 79 78 77 77 76 72 67 66 67 66 66 67 66 65 66 65 64 63 62 62 61 57 56 55 52 53 51 45 41 37 38 45 53 60 64 64 68 73 77 79 80 81 79 78 78 76 74 72 69 69 68 63 58 55 53 51 50 51 51 48 46 45 42 42 45 46 42 39 36 34 33 32 32 32 30 28 28 27 27
80 79 79 79 79 80 81 82 82 83 82 81 81 78 73 70 71 72 72 71 70 69 69 68 68 68 67 65 65 65 62 61 60 56 55 56 54 50 45 40 41 45 53 61 65 67 69 75 80 82 82 81 80 82 82 80 75 71 73 72 64 60 60 58 55 55 56 53 48 46 46 46 46 47 48 45 42 38 35 35 35 34 33 32 31 30 29 29
83 83 83 82 82 83 84 85 86 86 86 85 83 78 75 75 75 76 77 76 74 74 73 71 70 71 71 69 68 68 66 65 65 62 59 58 58 57 53 48 44 43 47 55 63 67 68 72 78 81 83 84 84 85 85 83 79 76 76 74 69 66 65 62 60 60 57 51 48 48 49 48 47 48 50 48 46 39 34 38 40 36 35 35 34 33 31 31
87 87 87 86 85 86 87 88 89 89 89 89 84 80 79 80 80 80 81 81 80 79 76 74 74 74 74 73 71 71 70 68 68 68 64 62 61 61 60 56 50 49 50 51 58 65 67 70 75 79 83 86 88 88 87 86 83 80 78 76 74 71 68 65 63 61 56 52 51 50 51 51 49 49 52 51 49 41 36 42 44 39 38 37 36 36 34 33
90 91 91 89 89 90 91 91 92 93 93 91 86 84 84 85 85 85 86 86 85 82 79 77 78 78 76 76 75 74 73 72 70 70 69 66 66 64 62 61 58 56 57 54 54 60 64 69 73 77 82 87 89 90 88 86 84 83 81 79 78 76 72 70 66 62 59 57 55 53 52 53 51 52 54 54 50 43 41 46 46 42 41 39 39 39 37 35
93 95 95 93 93 95 95 95 97 97 96 94 90 89 89 89 89 89 89 89 88 85 82 80 81 82 79 78 77 76 77 76 71 70 71 70 71 68 64 64 63 61 62 60 55 56 61 66 71 75 80 84 88 89 88 87 86 86 84 82 82 80 77 74 69 65 65 63 59 56 54 54 54 55 57 57 51 45 46 48 46 45 44 42 42 42 40 38
98 99 100 98 97 100 101 100 100 100 100 98 95 94 94 93 93 93 92 92 92 89 86 85 85 85 84 83 80 79 81 80 74 72 74 72 73 73 68 66 67 65 65 63 58 55 58 61 68 75 77 78 84 87 89 90 91 90 90 87 85 83 81 78 73 71 71 66 60 59 57 55 57 59 60 59 53 49 49 48 47 48 47 44 44 44 42 40
103 103 105 103 102 105 106 104 103 103 103 101 99 99 99 99 98 97 96 95 94 92 90 89 89 89 89 88 85 84 85 84 79 76 76 75 76 77 74 69 69 68 66 66 64 61 60 59 62 72 74 74 80 87 90 93 94 94 94 91 89 87 85 83 79 77 75 66 61 63 61 58 60 61 60 60 56 51 51 49 48 50 49 47 47 46 45 43
107 107 108 108 107 109 111 109 107 107 107 105 105 105 104 103 102 101 99 99 98 96 95 94 93 93 93 92 91 89 89 88 84 81 79 79 79 80 78 72 70 71 69 69 70 67 64 59 57 65 73 72 76 83 89 93 96 96 95 93 91 89 88 87 84 80 76 70 68 69 64 59 61 61 60 61 58 52 51 51 50 51 51 50 49 48 47 45
112 112 113 114 114 113 114 113 113 113 112 111 110 109 109 108 107 105 104 104 102 101 100 99 98 98 96 96 96 94 93 92 89 85 83 82 82 82 81 76 73 75 74 74 75 70 64 60 57 60 69 72 71 77 85 90 94 96 96 94 92 90 91 89 85 83 81 77 75 72 66 63 63 63 63 63 61 56 53 54 53 52 52 52 51 50 48 45
119 119 119 121 121 120 119 119 119 120 119 118 116 115 114 113 112 111 110 109 108 107 106 104 103 102 101 100 101 99 98 96 94 92 89 87 86 85 83 79 77 80 81 78 76 71 65 62 60 58 62 68 70 72 80 87 92 94 96 97 94 94 95 91 87 87 86 81 78 73 68 66 67 67 66 64 63 61 58 57 56 54 54 55 53 52 51 48
128 127 127 129 130 129 127 126 127 127 127 126 123 121 120 118 118 117 115 114 113 112 112 110 109 109 107 106 105 104 103 101 100 98 95 92 91 89 86 83 81 86 86 79 75 74 70 66 63 58 57 63 70 73 76 83 90 94 97 99 98 98 98 94 90 92 90 86 81 76 71 70 70 69 68 65 64 64 62 59 58 57 58 57 55 55 55 52
137 136 136 138 138 137 136 136 136 136 135 134 132 129 127 126 125 123 121 120 119 118 118 117 116 114 113 111 109 108 107 106 105 103 100 97 96 93 90 86 85 87 85 78 76 77 76 70 63 59 58 61 68 73 75 79 87 93 95 97 99 101 101 99 96 94 94 92 85 78 76 75 72 71 70 67 65 66 66 64 61 60 60 59 58 58 59 55
142 142 142 143 144 143 143 143 143 143 143 142 140 138 135 134 133 130 128 127 126 125 124 123 121 119 118 116 114 112 111 110 108 106 104 102 100 97 94 90 87 87 84 80 80 81 78 72 64 60 59 60 64 71 74 77 83 90 94 95 98 102 103 102 99 96 96 95 86 81 82 80 76 73 72 70 67 68 70 69 65 64 63 63 62 62 60 55
142 142 143 143 144 144 145 145 146 147 147 147 145 143 142 141 139 137 136 134 133 131 130 128 127 125 123 122 119 117 115 114 111 109 107 106 103 100 98 94 88 86 84 82 82 82 78 72 67 64 62 60 63 68 73 76 79 85 91 94 96 100 103 104 101 98 98 97 89 87 89 85 78 75 74 73 71 70 72 73 71 68 66 66 66 63 60 58
136 136 136 137 138 139 141 143 144 145 146 147 146 145 144 143 142 141 140 139 138 136 135 134 132 131 129 127 124 121 119 118 115 113 111 110 106 103 101 97 90 87 86 84 83 82 76 72 71 69 66 62 62 66 70 74 77 81 87 92 96 98 102 104 103 100 100 99 93 91 92 87 82 79 78 77 75 73 74 76 75 72 70 70 67 63 63 63
121 120 121 122 123 124 127 130 133 135 136 139 140 141 141 141 141 141 140 140 139 138 139 138 136 134 132 130 127 125 125 124 122 118 116 112 108 106 103 96 90 88 88 85 83 80 76 73 73 71 66 61 61 64 67 71 75 78 81 88 93 97 99 102 104 103 102 100 96 95 92 88 84 83 82 80 77 75 74 76 77 75 74 73 68 66 67 65
106 105 106 107 107 109 112 113 115 117 118 121 125 127 128 129 130 132 134 136 137 139 139 137 135 133 132 131 131 130 130 129 124 119 116 112 109 106 101 94 90 89 88 84 82 79 75 73 73 72 68 63 62 64 65 68 75 77 76 80 88 94 97 100 102 103 103 101 99 97 93 89 88 87 85 82 79 75 72 75 80 80 78 76 71 70 71 66
Wind_Direction
261 262 263 264 265 266 267 268 269 270 271 272 273 274 275 275 276 278 280 283 287 291 297 303 309 314 319 324 327 331 336 343 349 351 355 5 13 21 28 33 36 41 48 53 54 50 48 48 48 51 56 64 90 145 196 212 208 209 215 227 237 237 235 232 226 224 224 225 226 230 233 236 239 242 245 249 254 258 262 264 265 267 268 268 268 265 264 267
262 263 263 264 265 266 267 268 269 269 270 270 271 273 274 274 275 275 276 278 280 284 288 292 297 302 308 312 316 319 323 329 336 340 343 350 358 5 15 26 29 32 38 46 53 55 51 46 44 41 42 49 52 88 189 214 214 216 219 223 232 239 238 235 229 223 221 221 222 226 230 236 239 242 248 254 260 264 265 264 264 263 263 264 263 260 259 261
263 264 264 265 266 266 267 268 269 269 270 270 270 271 272 273 274 274 274 275 275 277 280 283 287 291 297 302 306 309 311 315 321 327 331 335 341 350 356 8 20 25 28 34 43 52 54 49 45 39 34 38 41 39 83 220 222 222 219 220 230 240 241 236 231 226 224 223 222 226 230 236 240 246 254 259 262 263 261 257 255 255 255 255 254 252 250 249
264 265 265 266 267 267 267 268 268 269 269 269 270 270 270 271 273 273 274 274 273 273 274 275 278 282 287 292 296 300 302 304 308 312 317 321 324 332 338 345 0 13 17 23 30 39 49 50 46 41 32 29 35 36 26 291 225 220 217 224 233 239 239 234 231 229 227 227 227 228 231 236 244 252 256 259 258 253 247 244 241 240 240 240 238 234 229 224
264 265 265 266 267 267 267 267 267 268 268 268 268 268 268 269 270 271 271 272 273 272 272 271 271 274 277 281 287 290 294 296 297 301 304 308 311 315 321 326 335 350 1 8 16 26 35 44 44 40 33 25 28 35 34 26 272 218 213 222 235 239 236 232 231 228 226 227 227 228 231 237 243 248 251 248 240 231 226 221 216 216 216 217 216 213 214 211
265 266 266 266 266 266 267 267 266 266 266 266 266 266 266 266 267 267 268 269 270 270 271 270 269 269 270 272 276 281 285 287 289 293 295 298 302 304 307 311 318 327 339 347 355 9 21 31 38 39 35 27 24 33 38 34 23 260 220 226 234 237 233 228 226 221 219 221 224 227 229 231 236 238 236 225 212 203 201 196 191 198 204 208 217 231 238 237
266 266 267 267 267 266 266 266 266 266 266 265 266 265 264 264 264 264 265 265 266 267 267 268 268 267 267 267 268 271 273 276 282 286 287 291 295 297 300 303 306 312 319 326 333 343 1 17 28 35 36 30 25 29 39 40 34 26 262 234 232 229 224 219 217 214 213 217 225 228 227 228 230 227 221 211 198 188 189 194 196 205 218 228 243 250 250 247
266 266 266 267 267 266 266 266 265 265 265 265 265 265 264 263 262 262 262 263 263 264 264 265 266 265 265 265 264 264 264 267 274 279 282 286 289 291 295 297 300 303 306 311 316 323 334 355 14 25 33 33 29 28 35 43 41 36 34 282 224 217 214 210 207 208 214 221 228 231 233 234 231 227 221 208 196 190 193 200 205 223 250 257 253 251 250 247
266 267 267 267 267 266 266 265 265 264 264 264 264 264 263 263 262 262 261 261 262 262 263 262 262 263 262 262 261 260 260 262 267 273 278 281 282 286 290 292 294 297 298 301 304 308 314 326 351 9 25 33 32 30 32 41 45 42 41 49 112 194 201 201 201 207 220 227 231 234 240 240 237 236 228 211 200 198 201 205 216 242 260 262 258 253 249 245
267 268 268 268 267 267 267 267 266 266 265 264 264 263 262 262 262 262 261 260 260 260 261 261 261 261 261 260 258 258 258 260 263 266 271 275 276 278 283 286 289 291 292 294 295 298 302 307 321 343 8 28 32 32 33 36 45 48 43 43 58 131 179 187 195 206 220 230 234 234 239 244 242 242 233 215 207 206 208 215 232 249 254 261 263 258 250 246
270 269 269 269 269 268 268 268 268 267 266 265 265 264 263 262 261 260 260 260 259 259 258 259 260 259 259 259 256 254 257 258 259 260 263 268 270 271 274 279 282 284 286 287 289 290 293 297 302 316 338 8 28 32 34 33 39 48 47 40 41 59 164 184 194 206 216 227 231 230 236 246 248 247 238 221 212 211 213 224 239 246 252 259 261 253 236 222
272 272 272 271 271 270 269 269 269 268 268 267 266 265 264 262 261 260 260 259 259 258 258 257 258 258 258 258 256 253 254 256 256 257 258 261 265 266 266 269 273 276 279 281 282 284 285 289 292 297 308 333 10 25 34 34 32 39 48 44 37 34 38 211 212 216 220 224 229 230 236 247 251 248 238 223 217 214 216 225 235 242 250 253 240 217 190 173
273 273 273 273 273 272 272 271 271 270 269 269 267 266 265 264 262 261 260 259 259 258 257 256 256 256 256 256 257 254 252 253 254 254 255 257 260 262 263 263 266 270 273 275 276 278 280 282 285 288 292 300 326 0 21 32 31 30 40 47 40 30 24 1 229 227 228 229 232 234 239 249 252 246 238 226 217 214 216 221 217 207 191 165 165 161 151 145
272 272 272 273 273 273 273 272 272 272 271 270 270 268 268 266 264 262 260 259 259 258 257 256 256 255 254 254 255 255 252 252 251 251 252 255 257 259 260 260 261 264 267 270 271 273 275 276 278 281 284 285 292 316 346 15 29 25 30 44 49 39 28 32 47 231 230 233 239 237 239 247 248 242 239 231 223 219 214 205 177 149 135 136 145 147 142 138
272 272 272 272 272 272 272 271 271 271 271 271 270 269 269 268 267 265 263 260 259 258 257 256 256 254 253 253 253 253 252 251 251 249 250 252 255 257 258 258 258 259 262 265 268 270 271 271 273 276 277 276 277 282 296 326 3 20 25 38 54 55 44 39 47 49 44 226 241 239 236 243 243 242 242 237 229 219 201 177 152 137 133 141 144 143 137 134
272 272 272 272 271 271 271 271 270 270 270 270 270 269 269 268 268 266 265 263 261 259 257 256 255 254 253 252 253 252 251 250 250 249 248 249 252 255 256 255 256 257 259 261 264 266 267 267 269 271 272 271 270 267 267 282 299 333 16 39 49 64 66 52 46 52 48 51 200 215 216 226 235 232 227 219 207 196 177 157 144 134 133 139 140 138 135 133
272 272 272 272 272 272 271 271 271 270 270 270 270 269 269 268 267 267 266 264 262 260 259 257 255 254 253 252 252 252 251 249 248 248 248 248 248 252 254 254 253 254 256 257 260 262 264 265 265 267 269 268 265 260 256 262 268 275 265 107 45 60 92 77 57 62 72 103 155 170 171 176 194 195 186 180 176 170 156 143 137 133 134 138 140 140 140 138
271 271 271 272 272 272 273 272 272 272 271 271 271 270 270 269 268 267 266 265 264 262 260 258 256 254 253 252 251 252 251 250 247 246 246 247 246 248 251 253 252 251 252 253 256 258 261 263 264 264 265 264 262 259 254 254 255 258 251 211 161 251 120 110 97 85 94 127 154 157 156 158 162 162 159 159 159 152 142 137 136 135 137 140 141 142 143 141
272 272 271 271 272 272 272 272 272 273 273 272 272 272 271 270 270 269 267 266 265 263 262 260 258 255 253 252 251 251 251 250 248 246 244 244 245 245 247 250 250 249 250 251 253 255 257 260 262 260 260 261 261 260 255 251 248 249 253 237 202 214 204 156 141 129 118 131 151 161 162 160 153 148 145 145 148 145 139 138 139 140 142 143 143 144 143 143
275 275 275 274 273 273 273 272 272 272 272 272 272 272 272 271 271 270 270 268 267 265 263 262 260 257 255 253 251 249 250 250 249 247 244 243 243 244 244 246 248 248 247 248 249 251 253 255 258 259 258 259 259 258 256 251 245 241 245 245 226 211 218 206 174 160 158 156 157 163 169 168 158 152 147 145 149 149 145 144 145 146 147 147 146 146 146 146
281 281 281 280 280 279 278 277 277 276 275 274 273 272 271 271 271 270 270 270 269 268 266 264 262 259 256 254 252 249 248 248 248 247 246 243 241 241 242 243 245 246 245 245 246 249 252 253 254 255 256 256 256 256 256 253 247 240 237 241 236 222 217 218 207 190 181 180 182 177 179 177 169 164 159 158 160 159 155 153 152 152 150 148 146 145 145 147
283 284 285 286 286 286 286 286 286 285 284 283 280 277 275 273 272 271 270 270 269 269 269 267 265 263 259 256 254 251 249 247 247 247 246 244 242 240 240 241 242 244 243 243 245 247 250 251 250 252 253 253 254 253 253 253 250 242 236 238 239 231 223 219 217 214 203 197 199 196 192 187 178 173 170 170 170 169 168 164 160 157 155 153 150 147 147 149
283 285 286 287 288 289 290 290 291 291 291 291 290 288 285 283 280 277 274 272 269 268 269 268 267 265 262 259 257 254 251 248 246 246 245 244 243 241 240 239 240 242 242 242 242 243 244 246 248 250 250 250 251 250 250 252 252 247 239 236 237 232 227 222 219 220 219 214 211 209 203 195 189 184 182 184 183 178 177 175 168 164 163 163 161 157 154 154
282 283 284 286 286 288 289 290 292 293 293 294 294 294 294 293 292 289 285 280 274 269 268 270 269 267 265 262 260 257 254 250 247 246 245 243 243 242 240 238 238 240 241 241 240 240 241 243 247 251 251 250 250 250 249 249 252 250 243 237 236 233 228 224 222 222 224 223 219 215 207 200 200 194 189 191 191 185 183 181 176 173 174 175 175 173 169 171
281 282 283 283 284 285 286 288 288 287 290 291 291 292 294 295 296 295 293 291 287 278 270 270 271 269 266 264 262 260 257 254 250 247 246 243 242 242 241 239 237 237 239 239 238 237 239 242 246 251 252 250 249 249 248 246 248 250 247 241 236 234 229 224 222 223 223 223 223 220 210 202 202 199 195 193 191 189 187 186 186 186 186 188 190 193 193 197
280 280 281 282 282 283 283 283 282 282 283 283 284 286 289 291 292 293 294 294 294 291 282 274 272 271 269 266 264 262 260 258 254 250 248 245 242 240 241 240 238 237 237 238 237 237 239 241 244 248 252 251 247 246 246 244 245 249 249 246 240 234 231 227 223 222 223 222 220 222 218 209 204 201 199 198 196 196 194 193 196 197 198 198 198 203 212 223
280 279 279 279 280 280 280 279 278 279 279 279 281 283 285 287 287 289 290 292 294 294 291 285 279 274 270 268 267 264 262 261 258 254 251 248 244 241 240 240 239 237 236 236 236 237 238 239 241 244 248 250 247 246 245 242 241 245 247 247 243 236 231 228 227 223 223 223 218 220 225 220 212 205 201 201 202 203 203 202 203 205 209 210 205 206 215 233
281 280 279 278 278 278 279 278 277 277 277 277 279 281 283 284 285 286 287 290 291 290 289 289 286 282 276 271 268 265 263 262 261 260 256 252 248 244 240 239 239 238 237 235 235 236 237 237 239 241 243 246 246 243 242 241 238 239 243 244 242 239 233 229 230 226 224 223 218 218 226 228 224 216 208 205 207 208 208 209 209 211 215 217 213 209 212 229
281 280 279 278 277 277 277 277 276 275 275 276 277 278 280 282 283 285 286 289 289 284 285 288 287 287 284 278 272 265 262 262 262 261 260 258 253 248 243 239 238 238 237 235 234 235 236 236 237 239 242 244 245 243 240 240 237 235 238 242 242 241 237 232 230 229 226 223 219 219 225 229 229 226 218 213 213 213 211 211 213 215 217 218 218 214 210 223
280 279 278 277 277 276 276 276 276 275 274 274 275 275 277 278 280 283 286 289 286 282 283 285 285 286 286 284 279 271 264 261 259 259 259 259 258 255 249 242 238 238 237 235 235 234 234 235 235 237 240 241 243 244 241 239 239 236 237 240 241 241 239 235 231 230 228 224 221 222 225 228 228 226 224 222 220 219 216 214 215 218 220 224 225 222 219 226
280 279 278 277 276 275 275 275 275 274 274 273 273 273 274 275 277 280 284 285 282 281 283 283 284 284 283 283 282 279 273 265 258 258 258 257 258 258 256 250 242 238 236 235 235 234 232 234 234 235 238 238 239 242 241 239 241 241 240 239 241 242 240 237 234 233 230 226 226 226 226 229 230 227 225 226 226 223 220 218 218 220 222 227 228 227 227 231
280 280 278 277 276 275 275 275 274 274 273 273 272 273 273 273 276 279 280 279 278 280 281 281 282 282 281 282 282 281 279 274 268 265 260 256 256 257 258 257 250 243 237 234 234 234 232 232 234 234 236 237 238 240 240 239 240 241 241 238 239 242 242 239 237 236 232 231 232 232 229 228 231 232 228 227 229 227 224 223 224 224 224 226 227 226 226 231
280 279 278 277 276 276 275 274 274 273 272 272 272 272 272 273 276 276 275 275 275 276 277 277 278 280 280 281 280 279 280 279 277 273 267 260 255 256 258 258 256 251 244 236 233 234 232 231 232 234 235 237 238 240 241 240 240 240 240 238 237 239 241 241 239 238 236 234 235 235 233 227 229 236 234 229 230 229 226 227 229 228 226 226 227 226 226 232
277 277 277 276 275 275 275 274 274 273 272 271 271 271 272 274 275 274 273 273 272 273 273 274 275 277 278 278 278 277 278 279 278 277 275 268 260 257 258 260 258 255 251 244 236 233 232 230 231 232 234 235 236 238 238 237 237 238 239 237 234 234 237 238 238 238 237 235 234 235 235 229 229 236 236 231 231 231 229 229 231 231 230 229 230 230 229 233
276 275 275 274 274 274 273 273 273 272 272 271 271 271 273 274 274 272 272 271 271 271 272 272 273 274 275 275 275 275 276 277 276 277 278 275 270 264 259 259 260 257 255 252 244 236 232 230 230 231 232 233 235 236 237 235 235 237 238 236 232 232 234 234 235 235 235 235 232 233 235 232 230 234 236 234 233 233 233 233 231 232 234 233 233 234 234 235
275 275 274 273 273 273 272 272 272 272 272 271 271 272 274 274 272 272 271 270 270 270 270 271 272 272 272 272 272 273 274 275 275 276 277 277 276 273 266 261 260 258 256 255 251 243 236 230 229 230 231 231 233 235 236 237 235 235 238 238 234 234 234 232 231 231 233 233 232 232 234 234 233 236 238 237 235 233 234 238 235 234 236 236 235 235 236 238
276 275 274 273 273 272 272 272 272 272 272 271 272 273 274 272 271 271 271 270 270 269 269 269 270 270 270 270 270 271 271 272 273 274 275 275 275 275 273 267 262 260 259 257 254 249 242 235 229 228 230 230 231 233 235 236 235 234 237 239 236 234 234 233 231 231 232 232 231 232 234 235 235 238 241 240 238 233 232 239 239 236 237 238 238 239 238 240
276 275 273 273 273 272 271 271 271 271 270 271 272 272 272 271 271 270 269 269 268 267 268 268 269 269 269 270 270 269 269 269 271 272 273 274 274 274 274 272 268 266 264 261 258 253 247 242 233 227 228 230 230 232 233 235 235 235 236 238 238 235 234 234 234 234 234 232 231 231 234 235 234 237 240 240 239 235 230 237 240 238 238 239 241 242 242 243
277 275 274 274 273 271 270 270 270 269 269 270 270 270 269 269 269 268 268 268 267 267 267 267 268 268 268 268 268 268 268 267 268 270 272 272 273 272 272 273 272 271 269 265 261 256 251 247 240 231 227 229 229 230 232 234 235 236 236 236 239 238 234 234 234 234 234 232 231 231 233 235 235 236 240 240 239 235 232 236 240 240 239 239 241 243 245 245
277 275 274 274 273 271 271 270 269 269 269 269 269 268 267 267 267 267 267 267 267 267 266 266 266 266 266 266 267 267 267 266 266 268 270 271 271 271 271 273 272 271 270 267 263 259 254 249 246 238 229 227 229 229 231 233 233 235 236 235 238 239 237 235 234 234 234 232 230 230 231 234 235 236 240 241 239 236 235 237 239 240 240 239 241 243 245 246
276 274 274 273 272 271 270 269 269 269 269 268 268 267 267 266 266 266 266 266 267 266 266 265 265 265 265 265 265 265 266 266 265 265 266 268 270 271 270 270 271 270 269 268 266 263 258 251 249 245 234 227 229 229 229 231 232 232 234 234 234 237 237 236 233 234 235 233 232 232 231 232 234 235 238 240 238 236 237 238 238 241 241 240 241 243 245 246
275 274 273 272 271 270 269 269 268 268 268 268 267 266 266 265 264 264 264 264 265 265 265 265 264 265 265 265 265 265 265 265 264 263 264 265 267 269 269 269 270 270 269 269 267 264 260 253 249 249 242 230 228 229 228 229 231 231 232 233 233 233 235 236 233 233 234 234 235 235 232 231 234 236 238 241 239 237 238 239 239 241 243 242 242 244 244 246
274 273 272 271 269 268 268 268 267 267 266 266 265 265 264 264 264 264 264 263 263 264 264 264 264 264 264 264 264 264 264 264 264 262 262 263 264 266 268 268 269 270 269 268 266 264 261 257 251 250 248 237 229 229 229 229 230 231 232 233 234 235 236 237 235 234 234 232 233 234 233 232 235 237 239 241 241 239 239 240 240 241 242 243 243 244 244 245
273 272 271 270 268 267 266 266 266 265 264 264 263 263 263 263 262 262 262 262 262 263 263 263 263 263 263 263 263 263 263 263 263 262 262 262 262 264 266 267 268 270 269 266 265 264 262 259 255 251 249 244 235 230 230 229 230 231 232 233 234 235 236 237 237 237 234 231 231 232 231 232 234 235 237 239 241 240 238 240 242 242 243 244 244 245 247 247
273 271 270 269 268 267 266 265 264 263 263 262 261 261 261 261 261 260 260 260 261 261 261 261 261 261 261 262 262 262 263 263 263 262 262 262 262 262 264 265 266 267 267 265 265 265 263 260 258 253 250 248 242 235 231 230 230 231 231 231 231 233 235 235 236 238 236 233 233 233 232 232 233 234 235 237 239 239 237 237 241 242 243 244 246 247 249 248
272 271 270 269 268 267 266 265 264 263 262 262 261 260 260 259 259 259 259 259 259 259 260 260 260 260 260 261 261 262 263 263 263 262 262 262 262 262 262 263 264 264 265 265 266 265 264 261 258 256 253 248 245 241 234 230 229 230 230 230 230 231 233 233 233 236 237 235 234 233 233 233 234 235 236 237 239 241 239 237 238 240 242 244 246 247 249 249
271 270 269 268 267 266 266 265 264 263 263 262 261 260 259 259 258 258 258 257 257 257 258 258 258 258 259 259 260 260 261 261 262 262 262 262 262 262 262 261 262 263 264 266 265 263 262 260 257 255 253 248 244 243 239 233 230 229 229 230 229 230 232 232 231 233 236 236 233 233 234 234 234 236 237 238 239 241 242 240 238 238 241 243 244 245 248 250
272 271 269 268 267 267 266 265 264 263 263 262 261 260 260 259 258 258 257 257 257 256 256 257 257 257 258 258 258 258 259 259 260 261 261 261 261 262 262 261 261 263 264 264 263 261 260 261 258 255 253 250 245 243 241 237 233 230 229 229 230 230 231 232 232 231 234 235 233 233 235 234 233 234 236 237 237 238 241 242 239 238 239 241 242 244 246 249
273 272 270 269 268 267 266 265 264 263 263 262 262 261 260 259 259 258 257 257 256 256 256 256 256 256 255 256 256 256 257 258 258 259 259 260 260 260 261 261 261 262 263 262 262 261 261 261 260 257 253 249 246 243 241 240 238 233 229 228 229 230 230 231 232 231 233 235 232 232 234 233 232 233 234 235 235 235 239 241 240 239 239 240 241 243 245 247
274 273 271 270 268 267 266 265 264 263 262 262 262 261 260 259 258 258 257 256 256 256 255 255 254 254 254 254 255 255 256 256 256 256 257 257 258 259 260 261 261 262 262 260 260 261 261 259 258 257 253 249 247 245 241 240 240 238 232 228 228 230 230 230 230 231 233 234 233 232 234 234 233 233 234 234 234 234 236 240 242 241 240 241 241 243 244 245
275 273 271 270 268 267 265 264 263 262 262 262 261 261 260 259 258 257 257 256 256 255 254 254 254 254 254 255 255 255 255 254 254 254 254 255 256 258 259 260 260 260 259 259 259 260 260 258 257 257 255 251 248 247 244 240 240 239 236 231 229 229 230 231 230 230 231 233 233 233 234 235 235 235 236 236 235 235 235 239 243 244 243 242 242 243 244 245
274 272 270 269 268 266 265 264 263 262 262 261 260 260 259 259 258 257 256 255 254 253 253 253 253 253 253 252 252 252 252 253 253 254 256 257 258 259 260 261 261 260 260 260 261 261 259 257 257 257 256 252 249 248 245 241 239 239 239 236 232 230 230 231 230 230 230 231 232 232 232 234 235 236 236 236 236 236 236 237 241 243 244 244 244 244 245 246
Height
10999 10999 10999 10999 11000 11000 11000 11000 11000 11000 11000 11001 11001 11001 11001 11001 11001 11001 11001 11001 11001 11000 11000 11000 10999 10999 10999 10998 10997 10997 10996 10996 10996 10995 10994 10994 10994 10993 10992 10990 10989 10989 10988 10988 10987 10987 10986 10985 10984 10984 10984 10983 10983 10983 10983 10983 10982 10983 10983 10982 10982 10983 10983 10983 10984 10985 10986 10987 10989 10990 10991 10991 10991 10991 10992 10992 10991 10992 10991 10991 10990 10990 10990 10989 10989 10990 10989 10989
10997 10997 10997 10997 10998 10998 10998 10998 10998 10998 10998 10999 10999 10999 10999 10999 10999 10999 10999 10999 10999 11000 10999 10999 10999 10999 10998 10998 10997 10996 10996 10996 10996 10995 10995 10994 10994 10993 10993 10992 10990 10989 10989 10989 10988 10987 10987 10986 10985 10984 10984 10983 10982 10982 10982 10981 10980 10980 10981 10980 10980 10980 10981 10982 10982 10984 10985 10986 10987 10988 10989 10990 10990 10990 10990 10990 10990 10990 10989 10989 10989 10988 10988 10987 10987 10987 10987 10987
10994 10995 10995 10995 10996 10996 10996 10996 10996 10996 10996 10997 10997 10997 10997 10997 10997 10997 10997 10997 10998 10998 10998 10998 10998 10998 10998 10998 10997 10996 10995 10995 10995 10995 10994 10994 10994 10994 10993 10992 10991 10990 10989 10989 10988 10988 10987 10987 10986 10985 10984 10983 10982 10981 10980 10979 10978 10978 10978 10978 10977 10978 10979 10980 10981 10982 10983 10985 10986 10987 10988 10988 10988 10988 10988 10988 10988 10988 10988 10987 10987 10987 10987 10986 10986 10986 10986 10986
10991 10992 10992 10993 10993 10993 10994 10994 10994 10994 10994 10994 10995 10995 10995 10995 10995 10995 10995 10995 10995 10996 10997 10997 10997 10997 10997 10997 10997 10996 10994 10994 10994 10994 10994 10994 10993 10993 10993 10992 10992 10991 10990 10989 10989 10988 10987 10987 10986 10986 10985 10983 10981 10980 10978 10977 10976 10976 10977 10976 10975 10975 10977 10978 10979 10980 10982 10983 10984 10985 10986 10986 10986 10987 10987 10987 10986 10986 10986 10986 10986 10986 10986 10986 10985 10985 10985 10985
10988 10989 10989 10990 10990 10990 10991 10991 10991 10991 10991 10992 10992 10993 10993 10993 10993 10993 10993 10992 10993 10993 10994 10995 10995 10995 10996 10996 10996 10995 10994 10993 10993 10993 10993 10993 10992 10992 10992 10992 10991 10991 10990 10989 10988 10988 10987 10987 10986 10985 10984 10983 10981 10979 10977 10976 10974 10974 10975 10975 10973 10974 10975 10976 10977 10979 10980 10982 10983 10983 10984 10984 10985 10985 10985 10985 10985 10985 10985 10985 10985 10985 10985 10985 10985 10984 10984 10984
10985 10985 10986 10986 10987 10987 10987 10988 10988 10988 10988 10989 10989 10990 10991 10991 10991 10990 10990 10990 10990 10991 10991 10992 10993 10993 10994 10995 10995 10995 10993 10991 10991 10991 10991 10991 10992 10991 10991 10991 10991 10991 10990 10989 10988 10988 10987 10987 10986 10985 10984 10982 10981 10979 10977 10975 10974 10973 10973 10973 10972 10972 10974 10975 10976 10977 10979 10980 10981 10981 10982 10983 10983 10984 10984 10984 10984 10984 10984 10984 10984 10985 10985 10985 10984 10984 10984 10984
10982 10982 10982 10983 10983 10984 10984 10984 10984 10985 10985 10986 10986 10987 10988 10988 10988 10988 10988 10988 10988 10988 10988 10989 10990 10991 10992 10993 10993 10993 10992 10990 10989 10990 10990 10990 10990 10990 10990 10990 10990 10990 10990 10989 10988 10988 10987 10987 10986 10985 10983 10982 10981 10979 10977 10975 10973 10972 10971 10971 10971 10971 10973 10974 10975 10976 10977 10978 10979 10980 10981 10981 10982 10983 10983 10983 10983 10983 10983 10984 10984 10984 10984 10984 10984 10983 10984 10983
10978 10978 10979 10979 10979 10980 10980 10980 10981 10981 10981 10982 10983 10983 10984 10985 10985 10985 10985 10985 10985 10985 10986 10986 10987 10988 10989 10990 10991 10991 10990 10988 10988 10989 10988 10989 10989 10989 10989 10989 10989 10989 10989 10989 10988 10987 10987 10986 10986 10985 10984 10982 10981 10979 10977 10975 10974 10972 10971 10970 10970 10970 10971 10972 10974 10975 10976 10977 10978 10979 10979 10980 10981 10982 10982 10982 10982 10982 10982 10983 10983 10983 10983 10983 10983 10983 10983 10983
10974 10974 10974 10975 10975 10975 10975 10976 10976 10977 10977 10978 10979 10980 10980 10981 10981 10982 10982 10983 10983 10983 10983 10983 10984 10985 10986 10987 10988 10988 10988 10986 10987 10988 10987 10987 10988 10988 10988 10988 10988 10988 10988 10988 10987 10987 10986 10986 10986 10985 10984 10982 10981 10980 10978 10976 10974 10973 10972 10971 10970 10970 10970 10971 10973 10974 10975 10976 10977 10978 10978 10979 10980 10980 10981 10981 10981 10981 10981 10982 10982 10982 10983 10983 10983 10983 10983 10982
10969 10969 10969 10970 10970 10970 10971 10971 10971 10972 10972 10973 10974 10975 10975 10976 10977 10978 10978 10979 10980 10980 10980 10980 10981 10982 10983 10984 10985 10985 10984 10985 10986 10986 10985 10985 10986 10986 10986 10986 10987 10987 10987 10986 10986 10986 10985 10985 10985 10984 10984 10983 10981 10980 10979 10977 10975 10974 10973 10972 10971 10970 10970 10971 10972 10973 10974 10975 10976 10976 10977 10978 10979 10979 10979 10980 10980 10980 10980 10981 10981 10981 10982 10982 10982 10982 10982 10982
10964 10964 10964 10964 10964 10965 10965 10966 10966 10966 10967 10967 10968 10969 10970 10971 10972 10973 10974 10975 10975 10976 10976 10977 10978 10979 10980 10980 10981 10982 10982 10982 10984 10984 10984 10983 10983 10984 10984 10985 10985 10985 10985 10985 10985 10985 10984 10984 10984 10984 10983 10983 10982 10980 10979 10978 10976 10974 10973 10972 10971 10970 10970 10970 10971 10972 10973 10974 10974 10975 10976 10977 10978 10978 10978 10979 10979 10979 10980 10980 10980 10980 10981 10981 10981 10981 10981 10981
10958 10958 10958 10958 10958 10959 10960 10961 10961 10960 10961 10961 10962 10963 10964 10965 10967 10968 10969 10969 10970 10971 10972 10973 10974 10975 10976 10976 10977 10979 10979 10979 10981 10981 10981 10980 10980 10981 10982 10983 10983 10982 10983 10983 10983 10983 10983 10983 10983 10983 10983 10983 10982 10981 10979 10978 10977 10975 10974 10973 10972 10971 10970 10970 10971 10971 10972 10972 10973 10973 10974 10976 10977 10977 10978 10978 10978 10979 10979 10979 10979 10979 10980 10980 10980 10980 10980 10980
10953 10953 10953 10952 10952 10953 10954 10955 10955 10954 10954 10955 10956 10957 10957 10958 10960 10962 10963 10964 10965 10966 10967 10968 10970 10971 10973 10973 10972 10975 10976 10976 10977 10978 10978 10978 10977 10978 10980 10981 10980 10980 10980 10981 10981 10981 10982 10982 10981 10982 10982 10982 10981 10981 10980 10979 10978 10977 10975 10973 10972 10972 10971 10970 10970 10970 10970 10971 10971 10972 10973 10974 10975 10976 10977 10978 10978 10978 10978 10978 10978 10978 10979 10979 10980 10980 10980 10980
10947 10948 10947 10947 10947 10947 10948 10948 10949 10948 10948 10949 10950 10950 10951 10951 10953 10955 10957 10958 10959 10960 10961 10963 10965 10966 10968 10968 10967 10969 10972 10972 10974 10975 10975 10975 10974 10975 10976 10978 10978 10978 10978 10978 10978 10979 10980 10980 10980 10980 10981 10982 10981 10980 10980 10979 10978 10977 10976 10975 10973 10972 10972 10970 10969 10969 10969 10970 10971 10971 10972 10973 10975 10976 10976 10977 10977 10978 10978 10977 10977 10978 10979 10980 10980 10981 10981 10981
10942 10942 10942 10941 10941 10941 10942 10942 10942 10942 10941 10942 10943 10943 10944 10944 10945 10947 10949 10951 10953 10954 10955 10957 10959 10960 10963 10963 10962 10964 10966 10968 10969 10971 10972 10972 10972 10971 10973 10975 10976 10976 10975 10975 10976 10977 10977 10978 10979 10979 10979 10980 10981 10980 10980 10979 10978 10977 10976 10976 10974 10973 10972 10971 10970 10969 10969 10970 10970 10971 10971 10973 10974 10975 10975 10976 10976 10977 10977 10977 10977 10977 10979 10980 10981 10982 10982 10982
10936 10936 10936 10935 10935 10935 10935 10936 10936 10935 10935 10935 10936 10936 10937 10937 10938 10939 10941 10943 10945 10947 10948 10950 10952 10954 10957 10957 10957 10958 10960 10962 10965 10967 10968 10969 10969 10968 10969 10971 10973 10973 10973 10973 10973 10974 10975 10976 10977 10978 10977 10978 10980 10980 10979 10979 10978 10977 10976 10976 10975 10974 10973 10971 10971 10970 10970 10970 10971 10971 10972 10974 10975 10974 10975 10975 10975 10976 10976 10976 10977 10977 10979 10981 10982 10983 10983 10984
10930 10930 10930 10930 10929 10929 10929 10930 10929 10929 10929 10929 10930 10929 10930 10930 10930 10931 10932 10933 10936 10939 10941 10943 10945 10948 10950 10951 10952 10952 10953 10956 10960 10962 10963 10964 10965 10965 10965 10967 10969 10970 10970 10970 10970 10971 10972 10973 10975 10976 10976 10977 10977 10978 10979 10979 10978 10977 10977 10976 10976 10975 10973 10972 10972 10972 10971 10972 10972 10972 10973 10975 10975 10975 10974 10974 10975 10975 10976 10976 10977 10978 10980 10982 10983 10984 10985 10985
10925 10926 10926 10925 10924 10923 10924 10924 10924 10924 10924 10924 10924 10923 10923 10923 10923 10924 10924 10925 10927 10930 10933 10934 10936 10940 10943 10945 10946 10945 10946 10950 10953 10956 10958 10959 10960 10961 10962 10962 10964 10966 10967 10967 10966 10967 10968 10969 10972 10974 10974 10974 10975 10977 10978 10978 10978 10977 10976 10976 10976 10975 10974 10973 10973 10974 10974 10974 10974 10974 10974 10975 10976 10975 10975 10975 10975 10975 10975 10977 10978 10979 10981 10983 10984 10985 10986 10986
10921 10922 10922 10922 10920 10919 10919 10919 10919 10918 10918 10918 10918 10918 10917 10917 10917 10917 10916 10917 10919 10922 10925 10925 10927 10932 10935 10938 10939 10939 10940 10942 10946 10949 10952 10953 10955 10957 10958 10958 10959 10961 10963 10964 10963 10964 10964 10966 10969 10970 10970 10971 10973 10974 10976 10977 10977 10976 10976 10976 10975 10975 10975 10974 10974 10975 10976 10976 10975 10975 10975 10976 10976 10976 10975 10975 10976 10976 10976 10977 10979 10980 10982 10983 10984 10986 10987 10987
10917 10917 10918 10918 10917 10915 10915 10915 10914 10914 10914 10913 10913 10913 10912 10911 10912 10911 10909 10911 10913 10914 10916 10917 10918 10922 10927 10929 10931 10932 10933 10935 10938 10941 10944 10947 10949 10951 10953 10953 10954 10957 10959 10959 10960 10960 10960 10962 10966 10965 10965 10968 10971 10972 10973 10975 10975 10975 10975 10975 10975 10975 10975 10975 10975 10975 10976 10977 10977 10976 10976 10977 10976 10976 10976 10976 10977 10977 10977 10978 10979 10981 10982 10984 10985 10986 10987 10988
10912 10912 10913 10913 10913 10911 10911 10911 10910 10909 10909 10909 10908 10908 10907 10907 10907 10905 10904 10905 10906 10907 10908 10909 10910 10913 10918 10920 10921 10924 10926 10928 10931 10934 10936 10939 10942 10945 10946 10948 10950 10951 10953 10954 10955 10956 10957 10960 10961 10959 10961 10964 10967 10970 10971 10972 10973 10974 10974 10974 10974 10974 10974 10974 10975 10976 10976 10977 10977 10977 10977 10977 10977 10977 10977 10977 10978 10978 10978 10979 10980 10981 10982 10984 10985 10986 10987 10988
10907 10907 10907 10908 10908 10906 10905 10905 10904 10903 10904 10903 10903 10903 10902 10902 10902 10901 10900 10899 10901 10902 10901 10902 10903 10904 10909 10912 10912 10915 10918 10920 10923 10926 10928 10931 10934 10938 10940 10943 10945 10945 10947 10950 10952 10954 10955 10956 10954 10952 10956 10960 10963 10967 10968 10968 10970 10972 10973 10973 10972 10972 10972 10973 10974 10975 10975 10976 10977 10977 10977 10977 10977 10977 10978 10978 10979 10979 10979 10980 10981 10981 10982 10983 10985 10986 10987 10988
10902 10902 10902 10902 10902 10901 10900 10899 10898 10897 10897 10897 10897 10897 10896 10896 10896 10897 10896 10895 10896 10897 10896 10895 10896 10897 10900 10903 10903 10906 10909 10912 10915 10917 10919 10923 10926 10930 10934 10936 10938 10939 10942 10946 10948 10950 10951 10950 10946 10944 10950 10956 10959 10962 10964 10965 10967 10969 10971 10972 10971 10970 10971 10972 10972 10973 10974 10975 10975 10976 10977 10977 10977 10977 10978 10978 10978 10978 10980 10981 10981 10981 10982 10983 10984 10986 10987 10988
10897 10896 10896 10896 10896 10897 10895 10894 10892 10891 10890 10891 10890 10890 10890 10890 10890 10891 10892 10891 10891 10893 10892 10890 10889 10890 10892 10894 10895 10898 10900 10903 10907 10909 10910 10914 10919 10923 10925 10928 10932 10934 10937 10939 10941 10945 10945 10943 10939 10938 10944 10952 10955 10958 10961 10963 10963 10964 10967 10969 10969 10969 10970 10970 10971 10972 10973 10974 10974 10975 10976 10977 10977 10977 10977 10977 10977 10978 10979 10981 10981 10981 10982 10983 10984 10985 10986 10988
10892 10890 10890 10890 10890 10891 10890 10889 10887 10885 10885 10885 10884 10884 10884 10884 10884 10884 10886 10886 10885 10886 10889 10887 10884 10884 10885 10887 10888 10890 10892 10895 10899 10900 10901 10906 10912 10914 10916 10920 10925 10927 10929 10931 10935 10939 10940 10937 10936 10936 10939 10947 10951 10954 10957 10959 10959 10960 10962 10965 10966 10967 10968 10969 10970 10970 10971 10972 10972 10974 10975 10975 10976 10976 10976 10976 10977 10978 10979 10980 10981 10981 10981 10982 10983 10984 10986 10987
10887 10884 10883 10883 10883 10884 10885 10884 10882 10881 10881 10879 10879 10879 10879 10878 10878 10878 10879 10881 10880 10879 10881 10883 10881 10880 10880 10881 10882 10882 10885 10889 10890 10892 10894 10897 10902 10906 10909 10913 10916 10919 10922 10924 10929 10934 10935 10932 10932 10933 10934 10938 10945 10949 10952 10955 10956 10956 10958 10960 10962 10964 10965 10966 10967 10967 10968 10969 10970 10972 10973 10973 10974 10975 10975 10976 10977 10977 10978 10979 10980 10980 10980 10980 10981 10983 10985 10987
10881 10878 10876 10876 10876 10876 10879 10879 10877 10876 10876 10874 10874 10874 10874 10874 10872 10872 10873 10875 10877 10873 10872 10875 10876 10876 10876 10876 10876 10876 10880 10881 10881 10885 10887 10888 10893 10898 10902 10904 10907 10911 10914 10918 10924 10928 10927 10926 10928 10930 10928 10930 10938 10944 10946 10949 10952 10952 10953 10954 10957 10959 10962 10963 10964 10965 10965 10966 10968 10970 10971 10972 10973 10974 10975 10975 10976 10976 10978 10979 10979 10979 10980 10980 10980 10981 10983 10986
10873 10872 10869 10868 10869 10869 10870 10872 10872 10871 10869 10868 10867 10867 10868 10868 10867 10867 10867 10870 10873 10869 10865 10867 10869 10870 10871 10871 10870 10871 10874 10874 10875 10879 10879 10880 10885 10889 10893 10896 10898 10902 10907 10912 10918 10918 10918 10921 10925 10924 10921 10923 10931 10936 10939 10942 10947 10948 10946 10947 10951 10954 10958 10960 10960 10961 10962 10962 10965 10968 10969 10970 10972 10972 10973 10974 10974 10975 10976 10977 10978 10979 10979 10980 10980 10979 10980 10983
10864 10864 10862 10859 10861 10861 10860 10863 10864 10864 10863 10861 10860 10860 10860 10860 10860 10861 10862 10865 10866 10863 10861 10860 10862 10864 10864 10865 10865 10867 10869 10868 10870 10872 10870 10873 10877 10879 10884 10888 10890 10893 10899 10905 10908 10909 10912 10916 10918 10917 10917 10921 10923 10927 10932 10936 10940 10941 10939 10941 10946 10950 10953 10955 10956 10957 10958 10961 10964 10965 10966 10967 10969 10970 10971 10972 10972 10973 10974 10975 10976 10977 10978 10979 10979 10978 10977 10980
10855 10856 10854 10850 10851 10852 10851 10853 10855 10855 10855 10855 10853 10853 10853 10853 10853 10853 10856 10860 10858 10855 10857 10854 10855 10857 10857 10858 10859 10861 10863 10863 10865 10865 10864 10867 10869 10869 10873 10878 10883 10885 10889 10896 10898 10901 10905 10907 10911 10913 10914 10917 10915 10916 10925 10931 10933 10933 10933 10937 10941 10944 10947 10950 10952 10953 10955 10960 10963 10962 10963 10963 10964 10966 10968 10969 10969 10970 10972 10974 10975 10976 10977 10977 10977 10976 10976 10978
10847 10847 10846 10843 10841 10841 10842 10842 10844 10845 10846 10847 10845 10844 10845 10846 10846 10847 10850 10852 10848 10848 10852 10848 10847 10850 10850 10851 10853 10855 10856 10856 10859 10859 10858 10861 10862 10862 10865 10868 10874 10876 10880 10887 10888 10891 10897 10900 10906 10908 10906 10907 10906 10907 10916 10924 10925 10925 10929 10935 10936 10938 10942 10945 10948 10949 10953 10959 10960 10959 10958 10959 10961 10963 10965 10965 10966 10968 10970 10971 10972 10973 10975 10975 10975 10976 10976 10978
10838 10838 10837 10835 10832 10831 10832 10833 10833 10834 10836 10836 10836 10837 10837 10838 10841 10843 10843 10843 10840 10841 10844 10841 10840 10843 10842 10844 10846 10848 10848 10848 10851 10852 10852 10855 10857 10858 10859 10859 10864 10867 10871 10877 10877 10880 10889 10894 10897 10899 10898 10900 10901 10901 10908 10915 10918 10919 10924 10930 10932 10932 10936 10942 10945 10947 10952 10955 10955 10954 10953 10955 10958 10959 10960 10962 10963 10965 10967 10968 10970 10971 10972 10973 10974 10975 10976 10977
10829 10828 10827 10827 10824 10821 10821 10822 10821 10823 10826 10825 10825 10827 10827 10830 10838 10837 10834 10833 10831 10833 10836 10833 10833 10835 10834 10836 10838 10839 10841 10841 10843 10845 10845 10848 10851 10853 10853 10853 10855 10858 10861 10865 10868 10872 10880 10885 10889 10892 10893 10895 10896 10896 10901 10909 10911 10912 10916 10923 10928 10927 10930 10937 10941 10944 10948 10949 10949 10948 10947 10952 10955 10954 10956 10959 10959 10961 10964 10966 10967 10968 10969 10970 10971 10973 10975 10976
10818 10818 10817 10816 10815 10811 10810 10811 10809 10810 10813 10814 10814 10815 10817 10825 10831 10827 10825 10825 10821 10823 10826 10825 10826 10827 10827 10829 10829 10831 10834 10834 10835 10838 10837 10839 10843 10846 10848 10847 10848 10850 10850 10854 10861 10864 10869 10877 10882 10883 10884 10887 10889 10890 10895 10899 10900 10902 10907 10912 10917 10920 10925 10932 10935 10938 10940 10941 10941 10941 10944 10951 10953 10949 10951 10954 10955 10958 10961 10963 10964 10965 10966 10967 10969 10970 10972 10974
10807 10807 10807 10805 10804 10802 10799 10798 10798 10797 10800 10802 10802 10804 10811 10819 10819 10815 10815 10815 10812 10813 10815 10816 10818 10819 10819 10821 10821 10823 10827 10826 10826 10830 10830 10831 10834 10836 10839 10841 10842 10843 10843 10845 10851 10856 10860 10867 10871 10871 10874 10879 10883 10883 10884 10885 10889 10895 10897 10899 10908 10917 10922 10924 10926 10929 10930 10930 10935 10938 10942 10947 10946 10944 10945 10949 10952 10954 10957 10959 10960 10961 10962 10964 10966 10967 10969 10971
10794 10795 10795 10793 10793 10791 10788 10786 10785 10784 10786 10788 10789 10796 10805 10808 10806 10803 10802 10803 10804 10804 10804 10807 10809 10808 10810 10813 10812 10814 10818 10817 10817 10822 10824 10824 10826 10828 10830 10833 10835 10837 10838 10837 10839 10845 10850 10855 10859 10862 10867 10872 10875 10873 10873 10876 10884 10889 10886 10891 10906 10913 10912 10914 10918 10920 10920 10925 10932 10936 10937 10940 10940 10940 10941 10945 10948 10951 10953 10954 10955 10957 10959 10961 10963 10964 10965 10967
10782 10781 10780 10781 10781 10779 10776 10773 10772 10771 10772 10773 10778 10789 10795 10793 10793 10792 10790 10792 10794 10793 10794 10797 10799 10799 10799 10802 10804 10805 10808 10809 10808 10813 10817 10816 10817 10820 10822 10824 10827 10829 10831 10829 10829 10834 10840 10843 10847 10854 10858 10861 10863 10862 10863 10869 10875 10879 10880 10886 10897 10900 10901 10907 10911 10912 10915 10923 10929 10930 10932 10934 10937 10937 10936 10939 10943 10947 10951 10950 10950 10953 10955 10957 10958 10960 10962 10963
10769 10767 10765 10768 10769 10766 10762 10759 10758 10758 10756 10759 10769 10779 10781 10779 10780 10779 10777 10778 10780 10781 10785 10787 10788 10788 10789 10792 10794 10795 10797 10800 10801 10802 10806 10808 10809 10812 10813 10815 10818 10820 10820 10821 10820 10823 10831 10833 10837 10845 10848 10849 10852 10853 10855 10862 10868 10873 10878 10881 10884 10890 10896 10901 10905 10908 10913 10919 10922 10924 10926 10927 10931 10933 10931 10933 10938 10943 10947 10944 10944 10949 10951 10952 10954 10955 10958 10959
10756 10752 10750 10756 10756 10750 10749 10747 10743 10742 10742 10747 10758 10764 10764 10764 10765 10765 10763 10763 10765 10769 10775 10777 10776 10776 10779 10782 10782 10784 10786 10789 10793 10793 10795 10800 10800 10802 10806 10807 10809 10811 10810 10812 10813 10814 10821 10824 10825 10832 10837 10837 10841 10846 10851 10859 10865 10868 10872 10874 10874 10881 10890 10894 10898 10904 10908 10911 10914 10917 10920 10922 10926 10927 10925 10927 10933 10939 10941 10939 10940 10944 10946 10948 10950 10951 10953 10956
10742 10736 10733 10742 10741 10732 10734 10733 10728 10728 10729 10735 10743 10746 10747 10748 10749 10750 10750 10749 10751 10756 10763 10765 10763 10763 10768 10770 10772 10774 10773 10775 10784 10785 10784 10790 10790 10791 10797 10798 10799 10803 10801 10801 10805 10806 10810 10816 10816 10818 10825 10831 10834 10843 10850 10853 10857 10858 10861 10867 10868 10872 10880 10884 10891 10897 10899 10902 10907 10910 10914 10917 10920 10920 10918 10921 10928 10934 10935 10935 10937 10939 10941 10943 10945 10946 10949 10951
10726 10720 10715 10725 10725 10714 10715 10716 10715 10715 10715 10719 10726 10728 10729 10731 10732 10734 10736 10736 10736 10742 10748 10750 10751 10752 10754 10757 10762 10764 10760 10762 10774 10775 10773 10779 10780 10780 10786 10789 10790 10793 10793 10793 10797 10799 10800 10807 10809 10805 10814 10828 10830 10834 10841 10840 10842 10846 10849 10855 10860 10862 10867 10873 10883 10888 10889 10896 10903 10905 10909 10913 10912 10912 10912 10914 10922 10927 10928 10931 10933 10933 10936 10939 10940 10942 10944 10947
10708 10704 10698 10704 10707 10697 10692 10697 10701 10699 10698 10704 10709 10708 10708 10712 10715 10717 10721 10722 10723 10727 10732 10735 10739 10741 10741 10744 10749 10752 10749 10750 10760 10765 10763 10768 10770 10770 10774 10780 10782 10783 10786 10787 10788 10789 10789 10795 10801 10798 10804 10820 10822 10822 10828 10829 10830 10834 10838 10845 10849 10851 10855 10861 10871 10877 10882 10892 10899 10898 10903 10907 10905 10905 10907 10909 10915 10921 10923 10925 10928 10928 10930 10933 10935 10937 10939 10942
10689 10687 10681 10680 10684 10680 10673 10677 10683 10680 10681 10687 10688 10687 10689 10692 10697 10701 10704 10706 10708 10712 10715 10720 10725 10727 10728 10731 10733 10736 10738 10738 10746 10753 10753 10755 10758 10759 10763 10771 10773 10772 10776 10778 10777 10778 10780 10785 10794 10794 10794 10805 10813 10815 10818 10820 10821 10825 10832 10839 10843 10847 10851 10854 10862 10870 10875 10884 10889 10889 10897 10903 10900 10900 10903 10904 10909 10915 10918 10920 10922 10923 10925 10928 10929 10931 10933 10936
10668 10669 10664 10657 10659 10660 10655 10658 10662 10658 10659 10665 10667 10668 10671 10673 10678 10684 10687 10689 10692 10696 10699 10704 10708 10710 10713 10716 10716 10720 10725 10727 10733 10740 10742 10744 10746 10747 10753 10762 10766 10763 10763 10766 10766 10770 10775 10777 10783 10787 10786 10792 10804 10809 10810 10812 10815 10819 10826 10834 10839 10844 10846 10849 10855 10860 10865 10874 10877 10880 10890 10896 10894 10893 10896 10899 10903 10908 10912 10914 10915 10917 10920 10922 10923 10925 10927 10931
10645 10646 10643 10635 10632 10636 10637 10638 10638 10634 10634 10640 10645 10649 10652 10654 10660 10665 10668 10671 10675 10679 10681 10686 10690 10692 10696 10699 10700 10705 10711 10715 10720 10725 10728 10732 10734 10736 10742 10751 10757 10753 10748 10754 10760 10762 10767 10769 10771 10777 10782 10785 10793 10799 10801 10803 10805 10808 10814 10821 10828 10832 10833 10841 10848 10847 10854 10867 10870 10875 10886 10889 10886 10885 10888 10892 10895 10898 10904 10908 10909 10911 10913 10914 10917 10919 10920 10924
10620 10620 10619 10611 10606 10610 10615 10615 10611 10609 10610 10615 10621 10629 10634 10635 10639 10644 10648 10654 10658 10660 10662 10667 10672 10673 10677 10683 10686 10691 10696 10701 10705 10708 10714 10720 10722 10725 10731 10739 10745 10739 10736 10747 10755 10752 10755 10759 10763 10770 10775 10778 10781 10785 10789 10793 10793 10796 10801 10808 10816 10819 10820 10829 10835 10835 10845 10856 10859 10869 10880 10880 10878 10880 10883 10888 10889 10889 10895 10901 10904 10906 10906 10908 10912 10913 10913 10917
10592 10593 10591 10585 10580 10584 10590 10588 10584 10583 10586 10590 10596 10606 10612 10613 10616 10622 10628 10634 10638 10640 10642 10647 10652 10655 10660 10667 10671 10675 10680 10684 10688 10693 10701 10706 10708 10712 10718 10725 10731 10728 10730 10742 10745 10740 10743 10750 10757 10764 10766 10768 10770 10772 10778 10782 10783 10786 10792 10798 10805 10808 10809 10815 10822 10829 10835 10838 10849 10865 10870 10868 10873 10876 10877 10881 10884 10883 10884 10890 10897 10900 10900 10902 10906 10906 10906 10910
10561 10562 10561 10556 10553 10557 10560 10560 10558 10556 10557 10561 10569 10580 10587 10589 10593 10600 10606 10612 10615 10618 10621 10626 10633 10639 10644 10648 10653 10658 10663 10667 10673 10679 10686 10691 10695 10700 10704 10711 10718 10719 10724 10733 10731 10728 10734 10742 10749 10755 10757 10759 10760 10761 10767 10771 10772 10776 10782 10789 10793 10797 10801 10805 10814 10825 10824 10825 10845 10859 10855 10855 10866 10869 10870 10875 10877 10875 10874 10879 10886 10890 10892 10895 10897 10899 10902 10905
10529 10528 10528 10526 10526 10528 10529 10529 10530 10529 10529 10533 10541 10551 10558 10563 10569 10577 10582 10587 10591 10596 10602 10608 10615 10620 10624 10628 10634 10640 10646 10652 10659 10666 10671 10675 10680 10686 10689 10696 10707 10711 10715 10720 10719 10719 10727 10736 10740 10743 10747 10750 10751 10751 10756 10761 10763 10766 10772 10779 10783 10785 10790 10796 10806 10817 10816 10819 10838 10844 10837 10845 10858 10861 10863 10866 10868 10867 10866 10868 10873 10879 10884 10886 10887 10893 10898 10900
10496 10494 10494 10494 10495 10497 10497 10496 10498 10501 10503 10505 10510 10520 10529 10536 10543 10549 10555 10561 10568 10576 10582 10586 10590 10595 10601 10608 10616 10626 10634 10639 10643 10649 10653 10658 10666 10673 10676 10684 10696 10702 10703 10707 10708 10711 10720 10727 10729 10730 10734 10741 10743 10743 10746 10750 10754 10757 10762 10768 10772 10774 10779 10785 10796 10806 10807 10813 10827 10830 10830 10841 10850 10852 10854 10857 10860 10860 10857 10858 10863 10869 10873 10876 10881 10887 10889 10891
10466 10464 10462 10460 10464 10465 10464 10464 10466 10471 10477 10479 10481 10488 10495 10504 10512 10519 10528 10538 10546 10553 10556 10558 10566 10577 10586 10596 10605 10613 10617 10615 10619 10628 10635 10643 10653 10661 10666 10674 10684 10689 10691 10695 10699 10705 10712 10717 10718 10719 10724 10733 10736 10735 10737 10741 10743 10745 10751 10758 10763 10767 10771 10777 10786 10795 10799 10806 10816 10819 10825 10838 10844 10844 10845 10848 10852 10855 10854 10853 10855 10860 10863 10867 10874 10879 10877 10881
10437 10438 10434 10433 10437 10436 10434 10438 10440 10444 10451 10455 10455 10457 10465 10474 10483 10491 10502 10511 10519 10524 10527 10534 10548 10561 10571 10578 10582 10584 10586 10591 10604 10619 10628 10635 10644 10650 10655 10664 10672 10676 10681 10687 10691 10696 10703 10707 10707 10710 10716 10723 10726 10726 10728 10728 10727 10735 10747 10752 10754 10758 10762 10767 10775 10783 10789 10797 10803 10809 10820 10832 10832 10830 10834 10839 10845 10851 10854 10850 10846 10850 10854 10857 10865 10869 10868 10874